Location: Newark
(13.8117°N, 3.6025°W)
Time: 09:07:24
(UTC+00:00)

Courier 1B - Pass Details

Date: 23 August 2019
Orbit: 962 x 1209 km, 28.3° (Epoch: 17 September)

Event Time Altitude Azimuth Distance (km) Brightness Sun altitude
Rises 20:08:48 0° 301° (WNW) 3,694 11.9 -23.5°
Reaches altitude 10° 20:12:06 10° 315° (NW) 2,717 10.7 -24.3°
Maximum altitude 20:17:09 23° 6° (N) 1,914 9.1 -25.4°
Enters shadow 20:19:37 19° 37° (NE) 2,124 9.1 -26.0°
